| time (UTC) | temp F | wind direction | speed MPH | gust MPH | rain 1hr in | rain 24hr in | rain mn in | humidity % | barometer mb |
| 20260505152532 | 74 | 172 | 4.0 | 13.0 | 0.00 | 0.00 | 0.00 | 48 | 1010.9 |
| 20260505151516 | 73 | 195 | 4.0 | 18.0 | 0.00 | 0.00 | 0.00 | 50 | 1011.1 |
| 20260505124921 | 57 | 204 | 0.0 | 0.0 | 0.00 | 0.00 | 0.00 | 77 | 1010.8 |
| 20260505123911 | 57 | 204 | 0.0 | 1.0 | 0.00 | 0.00 | 0.00 | 80 | 1011.0 |
| 20260505121724 | 55 | 203 | 0.0 | 3.0 | 0.00 | 0.00 | 0.00 | 84 | 1011.2 |
| 20260505120723 | 54 | 202 | 0.0 | 6.0 | 0.00 | 0.00 | 0.00 | 84 | 1011.3 |
| 20260505115706 | 54 | 126 | 0.0 | 3.0 | 0.00 | 0.00 | 0.00 | 85 | 1011.4 |
| 20260505114729 | 53 | 126 | 0.0 | 3.0 | 0.00 | 0.00 | 0.00 | 85 | 1011.4 |
| 20260505113727 | 53 | 97 | 0.0 | 1.0 | 0.00 | 0.00 | 0.00 | 85 | 1011.5 |
| 20260505112704 | 52 | 97 | 0.0 | 0.0 | 0.00 | 0.00 | 0.00 | 85 | 1011.5 |
| 20260505111659 | 51 | 174 | 0.0 | 3.0 | 0.00 | 0.00 | 0.00 | 85 | 1011.5 |
| 20260505110654 | 51 | 173 | 0.0 | 0.0 | 0.00 | 0.00 | 0.00 | 84 | 1011.1 |
| 20260505101147 | 50 | 157 | 0.0 | 0.0 | 0.00 | 0.00 | 0.00 | 83 | 1010.4 |
| 20260505100137 | 50 | 157 | 0.0 | 2.0 | 0.00 | 0.00 | 0.00 | 83 | 1010.3 |
| 20260505095106 | 50 | 157 | 0.0 | 0.0 | 0.00 | 0.00 | 0.00 | 83 | 1010.3 |
| 20260505094121 | 49 | 157 | 0.0 | 0.0 | 0.00 | 0.00 | 0.00 | 83 | 1010.4 |
| 20260505093111 | 50 | 157 | 0.0 | 1.0 | 0.00 | 0.00 | 0.00 | 82 | 1010.3 |
| 20260505091019 | 50 | 157 | 0.0 | 0.0 | 0.00 | 0.00 | 0.00 | 82 | 1010.2 |
| 20260505090004 | 50 | 157 | 0.0 | 0.0 | 0.00 | 0.00 | 0.00 | 82 | 1010.1 |
| 20260505083856 | 50 | 157 | 0.0 | 0.0 | 0.00 | 0.00 | 0.00 | 81 | 1010.2 |
| 20260505082842 | 50 | 157 | 0.0 | 0.0 | 0.00 | 0.00 | 0.00 | 81 | 1010.4 |
| 20260505081904 | 50 | 157 | 0.0 | 0.0 | 0.00 | 0.00 | 0.00 | 81 | 1010.5 |
| 20260505080929 | 50 | 157 | 0.0 | 0.0 | 0.00 | 0.00 | 0.00 | 80 | 1010.4 |
| 20260505075918 | 50 | 157 | 0.0 | 0.0 | 0.00 | 0.00 | 0.00 | 80 | 1010.4 |
| 20260505074906 | 51 | 157 | 0.0 | 0.0 | 0.00 | 0.00 | 0.00 | 80 | 1010.3 |
| 20260505073922 | 51 | 157 | 0.0 | 1.0 | 0.00 | 0.00 | 0.00 | 79 | 1010.3 |
| 20260505072938 | 51 | 157 | 0.0 | 2.0 | 0.00 | 0.00 | 0.00 | 79 | 1010.3 |
| 20260505071925 | 51 | 157 | 0.0 | 2.0 | 0.00 | 0.00 | 0.00 | 79 | 1010.2 |
| 20260505070917 | 51 | 157 | 0.0 | 0.0 | 0.00 | 0.00 | 0.00 | 79 | 1010.3 |
| 20260505065939 | 51 | 157 | 0.0 | 2.0 | 0.00 | 0.00 | 0.00 | 79 | 1010.4 |
| 20260505064913 | 51 | 157 | 0.0 | 2.0 | 0.00 | 0.00 | 0.00 | 78 | 1010.4 |
| 20260505062816 | 51 | 158 | 0.0 | 2.0 | 0.00 | 0.00 | 0.00 | 78 | 1010.6 |
| 20260505060613 | 50 | 155 | 0.0 | 3.0 | 0.00 | 0.00 | 0.00 | 77 | 1010.6 |
| 20260505055559 | 50 | 155 | 0.0 | 1.0 | 0.00 | 0.00 | 0.00 | 77 | 1010.7 |
| 20260505054538 | 50 | 155 | 0.0 | 1.0 | 0.00 | 0.00 | 0.00 | 76 | 1010.8 |
| 20260505053508 | 50 | 155 | 0.0 | 0.0 | 0.00 | 0.00 | 0.00 | 76 | 1010.9 |
| 20260505052434 | 50 | 155 | 0.0 | 2.0 | 0.00 | 0.00 | 0.00 | 75 | 1010.9 |
| 20260505051424 | 50 | 155 | 0.0 | 1.0 | 0.00 | 0.00 | 0.00 | 75 | 1010.9 |
| 20260505050426 | 50 | 155 | 0.0 | 2.0 | 0.00 | 0.00 | 0.00 | 74 | 1011.0 |
| 20260505041318 | 51 | 199 | 0.0 | 0.0 | 0.00 | 0.00 | 0.00 | 72 | 1011.2 |
| 20260505040322 | 52 | 199 | 0.0 | 0.0 | 0.00 | 0.00 | 0.00 | 71 | 1011.3 |
| 20260505035336 | 52 | 199 | 0.0 | 0.0 | 0.00 | 0.00 | 0.00 | 70 | 1011.2 |
| 20260505034334 | 52 | 199 | 0.0 | 0.0 | 0.00 | 0.00 | 0.00 | 69 | 1011.2 |
| 20260505033308 | 53 | 199 | 0.0 | 0.0 | 0.00 | 0.00 | 0.00 | 68 | 1011.2 |
| 20260505030036 | 54 | 213 | 0.0 | 6.0 | 0.00 | 0.00 | 0.00 | 66 | 1011.3 |
| 20260505025038 | 54 | 220 | 0.0 | 0.0 | 0.00 | 0.00 | 0.00 | 66 | 1011.2 |
| 20260505024043 | 54 | 220 | 0.0 | 6.0 | 0.00 | 0.00 | 0.00 | 65 | 1011.2 |
| 20260505021929 | 55 | 187 | 1.0 | 6.0 | 0.00 | 0.00 | 0.00 | 64 | 1011.3 |
| 20260505020858 | 55 | 190 | 0.0 | 6.0 | 0.00 | 0.00 | 0.00 | 64 | 1011.4 |
| 20260505015844 | 55 | 208 | 0.0 | 6.0 | 0.00 | 0.00 | 0.00 | 64 | 1011.3 |
| 20260505014900 | 55 | 207 | 0.0 | 6.0 | 0.00 | 0.00 | 0.00 | 64 | 1011.3 |
| 20260505013830 | 55 | 211 | 1.0 | 9.0 | 0.00 | 0.00 | 0.00 | 63 | 1011.2 |
| 20260505012835 | 56 | 160 | 1.0 | 9.0 | 0.00 | 0.00 | 0.00 | 63 | 1011.2 |
| 20260505011842 | 56 | 170 | 1.0 | 8.0 | 0.00 | 0.00 | 0.00 | 61 | 1011.1 |
| 20260505005759 | 56 | 174 | 3.0 | 9.0 | 0.00 | 0.00 | 0.00 | 60 | 1010.7 |
| 20260505004733 | 57 | 186 | 4.0 | 18.0 | 0.00 | 0.00 | 0.00 | 59 | 1010.6 |
| 20260505003725 | 57 | 205 | 4.0 | 18.0 | 0.00 | 0.00 | 0.00 | 58 | 1010.6 |
| 20260505002732 | 57 | 207 | 4.0 | 12.0 | 0.00 | 0.00 | 0.00 | 57 | 1010.4 |
| 20260505001746 | 58 | 193 | 4.0 | 12.0 | 0.00 | 0.00 | 0.00 | 56 | 1010.3 |
| 20260505000734 | 58 | 191 | 4.0 | 20.0 | 0.00 | 0.00 | 0.00 | 55 | 1010.1 |
| 20260504235730 | 59 | 230 | 4.0 | 20.0 | 0.00 | 0.00 | 0.00 | 53 | 1009.9 |
| 20260504234744 | 60 | 192 | 4.0 | 14.0 | 0.00 | 0.00 | 0.00 | 52 | 1009.9 |
| 20260504233755 | 60 | 225 | 4.0 | 13.0 | 0.00 | 0.00 | 0.00 | 50 | 1009.7 |
| 20260504232738 | 61 | 199 | 4.0 | 12.0 | 0.00 | 0.00 | 0.00 | 49 | 1009.6 |
| 20260504231750 | 61 | 131 | 4.0 | 13.0 | 0.00 | 0.00 | 0.00 | 49 | 1009.5 |
| 20260504230721 | 62 | 205 | 4.0 | 18.0 | 0.00 | 0.00 | 0.00 | 48 | 1009.4 |
| 20260504225649 | 63 | 199 | 4.0 | 18.0 | 0.00 | 0.00 | 0.00 | 46 | 1009.4 |
| 20260504224627 | 63 | 203 | 4.0 | 14.0 | 0.00 | 0.00 | 0.00 | 45 | 1009.3 |
| 20260504222439 | 64 | 198 | 4.0 | 18.0 | 0.00 | 0.00 | 0.00 | 44 | 1009.3 |
| 20260504221459 | 65 | 234 | 7.0 | 19.0 | 0.00 | 0.00 | 0.00 | 43 | 1009.4 |
| 20260504220508 | 65 | 211 | 7.0 | 20.0 | 0.00 | 0.00 | 0.00 | 41 | 1009.5 |
| 20260504211023 | 68 | 166 | 6.0 | 24.0 | 0.00 | 0.00 | 0.00 | 37 | 1009.3 |
| 20260504210003 | 68 | 186 | 7.0 | 24.0 | 0.00 | 0.00 | 0.00 | 36 | 1009.4 |
| 20260504204953 | 68 | 217 | 8.0 | 24.0 | 0.00 | 0.00 | 0.00 | 38 | 1009.3 |
| 20260504204006 | 69 | 226 | 7.0 | 27.0 | 0.00 | 0.00 | 0.00 | 36 | 1009.2 |
| 20260504203013 | 70 | 195 | 9.0 | 27.0 | 0.00 | 0.00 | 0.00 | 35 | 1009.3 |
| 20260504201954 | 70 | 136 | 7.0 | 24.0 | 0.00 | 0.00 | 0.00 | 33 | 1009.3 |
| 20260504201006 | 71 | 176 | 7.0 | 24.0 | 0.00 | 0.00 | 0.00 | 32 | 1009.3 |
| 20260504195957 | 71 | 229 | 6.0 | 26.0 | 0.00 | 0.00 | 0.00 | 30 | 1009.2 |
| 20260504194932 | 72 | 168 | 7.0 | 26.0 | 0.00 | 0.00 | 0.00 | 30 | 1009.3 |
| 20260504192744 | 72 | 150 | 6.0 | 23.0 | 0.00 | 0.00 | 0.00 | 28 | 1009.4 |
| 20260504191723 | 72 | 206 | 7.0 | 23.0 | 0.00 | 0.00 | 0.00 | 28 | 1009.5 |
| 20260504185521 | 72 | 170 | 7.0 | 22.0 | 0.00 | 0.00 | 0.00 | 28 | 1009.8 |
| 20260504184536 | 72 | 212 | 7.0 | 22.0 | 0.00 | 0.00 | 0.00 | 27 | 1009.7 |
| 20260504183557 | 72 | 157 | 6.0 | 20.0 | 0.00 | 0.00 | 0.00 | 28 | 1009.8 |
| 20260504182549 | 72 | 165 | 4.0 | 16.0 | 0.00 | 0.00 | 0.00 | 27 | 1009.8 |
| 20260504181519 | 72 | 232 | 6.0 | 16.0 | 0.00 | 0.00 | 0.00 | 27 | 1010.1 |
| 20260504180526 | 72 | 197 | 4.0 | 22.0 | 0.00 | 0.00 | 0.00 | 28 | 1010.2 |
| 20260504175515 | 71 | 227 | 6.0 | 22.0 | 0.00 | 0.00 | 0.00 | 28 | 1010.3 |
| 20260504173319 | 71 | 239 | 4.0 | 23.0 | 0.00 | 0.00 | 0.00 | 29 | 1010.6 |
| 20260504172305 | 70 | 232 | 7.0 | 23.0 | 0.00 | 0.00 | 0.00 | 28 | 1010.6 |
| 20260504171249 | 70 | 234 | 4.0 | 23.0 | 0.00 | 0.00 | 0.00 | 30 | 1010.6 |
| 20260504170303 | 69 | 261 | 8.0 | 23.0 | 0.00 | 0.00 | 0.00 | 26 | 1010.9 |
| 20260504160231 | 68 | 184 | 7.0 | 24.0 | 0.00 | 0.00 | 0.00 | 26 | 1011.6 |